Regional Weather Roundup
Issued by NWS Lake Charles, LA

Home | Current Version | Previous Version | Text Only | Print | Product List | Glossary On
Versions: 1 2 3 4 5 6 7 8 9 10 11 12 13 14 15 16 17 18 19 20 21 22 23 24 25 26 27 28 29 30 31 32 33 34 35 36 37 38 39 40 41 42 43 44 45 46 47 48
000
ASUS44 KLCH 241410
RWRLCH
RWRLCH
REGIONAL WEATHER ROUNDUP
NATIONAL WEATHER SERVICE LAKE CHARLES LA
900 AM CDT SUN MAY 24 2015

Note: "fair" indicates few or no clouds below 12,000 feet with no
significant weather and/or obstructions to visibility.


ACROSS SOUTHEAST TEXAS

CITY           SKY/WX    TMP DP  RH WIND       PRES   REMARKS
BEAUMONT       CLOUDY    73  66  78 SW10G24   30.00R
BEAUMONT CITY  TSTM      69  68  94 CALM      30.00R
ORANGE         CLOUDY    79  72  77 SE10      30.00S
JASPER         CLOUDY    77  74  91 SE7       30.00R
$$

ACROSS CENTRAL LOUISIANA

CITY           SKY/WX    TMP DP  RH WIND       PRES   REMARKS
LEESVILLE      CLOUDY    77  74  88 SE12G20   30.00R
FULLERTON      CLOUDY    79  73  82 VRB6      30.00R
ALEXANDRIA INT CLOUDY    77  73  87 SE13      30.01S
ESLER FIELD    CLOUDY    78  73  84 SE9       30.05R
DERIDDER       PTSUNNY   78  75  91 SE9       30.03R
OAKDALE        CLOUDY    78  74  90 SE6       30.03R
OPELOUSAS      CLOUDY    78  74  88 SE9       30.04S
$$

ACROSS SOUTHWEST AND SOUTH CENTRAL LOUISIANA

CITY           SKY/WX    TMP DP  RH WIND       PRES   REMARKS
SULPHUR        CLOUDY    82  73  75 SE18      30.01S
LAKE CHARLES   CLOUDY    81  73  76 S12       30.01R
CHENNAULT INT  PTSUNNY   81  75  83 SE12      30.01R
CAMERON PHI    MOSUNNY   81  73  78 S22G29    30.03R
DEQUINCY         N/A     78  78  99 SE7       30.01R
JENNINGS         N/A     79  74  85 SE9G16    30.02S
LAFAYETTE      PTSUNNY   79  74  84 VRB6      30.05R
NEW IBERIA     PTSUNNY   81  75  82 SE12      30.06R
ABBEVILLE        N/A     81  74  79 SE12G20   30.05R
PATTERSON      PTSUNNY   81  73  78 S7G17     30.08R
SALT POINT       N/A     83  74  74 VRB6      30.05R
$$

SELECTED SITES ACROSS THE REGION

CITY           SKY/WX    TMP DP  RH WIND       PRES   REMARKS
HOUSTON BUSH   CLOUDY    70  69  97 SE9       29.96R
HOUSTON HOBBY  CLOUDY    71  69  93 SE10      29.94F
GALVESTON      TSTM      74  72  93 S21       30.00R
COLLEGE STAT   CLOUDY    68  66  93 S10       29.92R
CONROE         LGT RAIN  69  67  93 S10       29.96R
HUNTSVILLE     LGT RAIN  69  68  96 S8        29.95R
LUFKIN         LGT RAIN  76  72  87 SE13      29.93S
SHREVEPORT     CLOUDY    77  72  84 SE14      29.97R
MONROE         PTSUNNY   77  72  84 SE10      30.05F
NATCHEZ MS     NOT AVBL
BATON ROUGE    MOSUNNY   80  73  79 SE12G22   30.07S
N.O. INTL ARPT PTSUNNY   82  72  71 S13       30.10R
SLIDELL        MOSUNNY   83  75  77 SE14G22   30.10R
$$

MARINE REPORTS

STATION/POSITION TIME  TEMP    WIND        PRES    VSBY  WAVE
                       AIR SEA DIR/SP/G                  HT/PER
                 (UTC) (F)     (DEG/KT/KT) (MB)    (MI)  (FT/S)
BUOY 30 S HIGH I 1350   74 80  230/ 17/ 23 1014.8R         5/ 7
SEA RIM ST PARK  1400   80     170/ 16/ 20 1015.8R
PORT ARTHUR      1300      77  170/  9/ 16 1015.4R
SABINE PASS N    1300   80 79  180/ 17/ 22 1015.3R
TEXAS POINT      NOT AVBL
CALCASIEU PASS   1300   80 81  190/ 20/ 27   N/A
LK CHARLES BEACH 1300   77 78              1015.9F
MARSH ISLAND     1300   88     180/ 17/ 21   N/A           0
FRESH WATER LOCK 1300   81 80  160/ 15/ 20 1016.6R
AMERADA PASS     1300   80 76  140/  8/ 11 1017.6R
$$



USA.gov is the U.S. government's official web portal to all federal, state and local government web resources and services.